TimeCDT,TemperatureF,Dew PointF,Humidity,Sea Level PressureIn,VisibilityMPH,Wind Direction,Wind SpeedMPH,Gust SpeedMPH,PrecipitationIn,Events,Conditions,WindDirDegrees,DateUTC
12:15 AM,57.2,55.4,94,29.90,4.0,North,3.5,-,N/A,,Mostly Cloudy,10,2013-05-09 05:15:00
12:35 AM,57.2,55.4,94,29.91,5.0,North,5.8,-,N/A,,Scattered Clouds,350,2013-05-09 05:35:00
12:55 AM,57.2,55.4,94,29.91,4.0,NW,5.8,-,N/A,,Scattered Clouds,320,2013-05-09 05:55:00
1:35 AM,56.7,55.0,94,29.91,3.0,NNW,6.9,-,N/A,,Mostly Cloudy,330,2013-05-09 06:35:00
2:15 AM,55.9,54.5,95,29.88,2.0,North,9.2,-,N/A,,Overcast,350,2013-05-09 07:15:00
2:35 AM,55.9,54.5,95,29.88,2.5,NE,3.5,-,N/A,,Scattered Clouds,40,2013-05-09 07:35:00
2:55 AM,55.9,54.5,95,29.88,2.5,North,3.5,-,N/A,,Mostly Cloudy,360,2013-05-09 07:55:00
3:15 AM,55.6,54.1,95,29.88,2.5,Calm,Calm,-,N/A,,Overcast,0,2013-05-09 08:15:00
3:35 AM,55.6,54.1,95,29.88,2.5,North,6.9,-,N/A,,Overcast,360,2013-05-09 08:35:00
3:55 AM,56.1,54.7,95,29.88,4.0,NNE,5.8,-,N/A,,Overcast,20,2013-05-09 08:55:00
4:35 AM,56.3,54.7,94,29.88,3.0,North,5.8,-,N/A,,Overcast,10,2013-05-09 09:35:00
4:55 AM,56.3,54.5,94,29.88,3.0,North,10.4,-,N/A,,Overcast,10,2013-05-09 09:55:00
5:15 AM,56.3,54.7,94,29.88,2.5,North,9.2,-,N/A,,Overcast,10,2013-05-09 10:15:00
5:35 AM,56.3,54.5,94,29.88,2.0,North,8.1,-,N/A,,Overcast,10,2013-05-09 10:35:00
5:55 AM,56.3,54.7,94,29.89,2.0,North,8.1,-,N/A,,Overcast,360,2013-05-09 10:55:00
6:15 AM,55.8,54.5,96,29.89,1.0,North,10.4,-,N/A,,Overcast,350,2013-05-09 11:15:00
6:35 AM,55.4,54.0,95,29.90,0.8,North,10.4,-,N/A,,Overcast,360,2013-05-09 11:35:00
6:55 AM,55.4,53.8,94,29.90,0.2,North,11.5,-,N/A,Fog,Fog,360,2013-05-09 11:55:00
7:55 AM,56.5,55.4,96,29.90,0.5,North,9.2,-,N/A,Fog,Fog,350,2013-05-09 12:55:00
8:15 AM,56.5,55.4,96,29.91,2.0,North,13.8,17.3,N/A,,Overcast,350,2013-05-09 13:15:00
8:35 AM,56.3,54.9,95,29.92,1.8,North,13.8,-,N/A,,Overcast,350,2013-05-09 13:35:00
9:35 AM,59.0,56.3,91,29.94,7.0,North,9.2,-,N/A,,Overcast,350,2013-05-09 14:35:00
9:55 AM,57.6,55.4,92,29.94,3.0,NNW,13.8,-,N/A,,Overcast,340,2013-05-09 14:55:00
10:35 AM,58.1,55.4,91,29.96,4.0,North,8.1,-,N/A,,Overcast,360,2013-05-09 15:35:00
10:55 AM,58.1,55.6,91,29.96,2.0,North,11.5,-,N/A,,Overcast,350,2013-05-09 15:55:00
11:35 AM,58.5,55.8,91,29.97,1.8,North,8.1,-,N/A,,Overcast,350,2013-05-09 16:35:00
12:15 PM,59.0,55.8,89,29.97,3.0,North,10.4,-,N/A,,Overcast,360,2013-05-09 17:15:00
12:35 PM,60.1,55.9,86,29.96,4.0,NNW,11.5,-,N/A,,Overcast,340,2013-05-09 17:35:00
12:55 PM,60.8,55.8,83,29.96,5.0,NNW,12.7,-,N/A,,Haze,340,2013-05-09 17:55:00
1:15 PM,61.0,55.6,82,29.96,5.0,North,6.9,-,N/A,,Haze,360,2013-05-09 18:15:00
1:35 PM,61.7,55.8,81,29.96,7.0,North,6.9,-,N/A,,Overcast,360,2013-05-09 18:35:00
1:55 PM,62.6,55.8,78,29.96,10.0,North,8.1,-,N/A,,Overcast,360,2013-05-09 18:55:00
2:35 PM,63.5,55.2,74,29.95,10.0,North,9.2,-,N/A,,Overcast,350,2013-05-09 19:35:00
2:55 PM,63.3,55.4,75,29.95,10.0,NNW,9.2,-,N/A,,Overcast,340,2013-05-09 19:55:00
3:15 PM,65.1,55.9,72,29.95,10.0,NNW,10.4,-,N/A,,Overcast,330,2013-05-09 20:15:00
3:35 PM,65.8,56.5,72,29.94,10.0,NW,11.5,16.1,N/A,,Overcast,320,2013-05-09 20:35:00
3:55 PM,64.4,56.3,75,29.94,10.0,NNW,10.4,-,N/A,,Overcast,340,2013-05-09 20:55:00
4:15 PM,64.9,56.5,74,29.93,10.0,NNW,12.7,-,N/A,,Overcast,340,2013-05-09 21:15:00
4:35 PM,65.5,56.3,72,29.93,10.0,NNW,16.1,-,N/A,,Overcast,340,2013-05-09 21:35:00
4:55 PM,65.7,56.1,71,29.94,10.0,NNW,13.8,20.7,N/A,,Mostly Cloudy,340,2013-05-09 21:55:00
5:15 PM,64.4,56.5,75,29.94,10.0,North,16.1,-,N/A,,Mostly Cloudy,350,2013-05-09 22:15:00
5:35 PM,63.1,56.1,78,29.95,10.0,North,21.9,28.8,N/A,,Overcast,350,2013-05-09 22:35:00
5:55 PM,63.0,56.3,79,29.95,10.0,North,17.3,-,N/A,,Overcast,360,2013-05-09 22:55:00
6:15 PM,62.2,55.8,79,29.96,10.0,North,16.1,21.9,N/A,,Overcast,360,2013-05-09 23:15:00
6:35 PM,61.9,55.8,80,29.96,10.0,North,12.7,-,N/A,,Overcast,360,2013-05-09 23:35:00
6:55 PM,61.7,55.6,80,29.96,10.0,North,15.0,-,N/A,,Overcast,350,2013-05-09 23:55:00
7:15 PM,61.2,55.2,81,29.97,10.0,North,15.0,-,N/A,,Overcast,350,2013-05-10 00:15:00
7:35 PM,61.2,55.0,80,29.97,10.0,North,16.1,-,N/A,,Overcast,350,2013-05-10 00:35:00
7:55 PM,59.9,55.2,84,29.97,7.0,North,17.3,21.9,N/A,,Overcast,350,2013-05-10 00:55:00
8:15 PM,59.0,55.0,87,29.98,7.0,North,16.1,19.6,N/A,,Overcast,360,2013-05-10 01:15:00
8:35 PM,57.9,54.5,88,29.98,7.0,North,16.1,20.7,N/A,,Overcast,360,2013-05-10 01:35:00
8:55 PM,57.4,54.5,90,29.99,7.0,North,12.7,-,N/A,,Overcast,360,2013-05-10 01:55:00
9:15 PM,57.2,54.5,91,29.99,10.0,North,10.4,-,N/A,,Overcast,350,2013-05-10 02:15:00
9:35 PM,57.2,54.5,91,30.00,7.0,NNW,8.1,-,N/A,,Overcast,330,2013-05-10 02:35:00
9:55 PM,57.2,54.7,91,30.00,7.0,NNW,8.1,-,N/A,,Overcast,340,2013-05-10 02:55:00
10:15 PM,57.2,54.3,90,30.01,7.0,NNW,10.4,-,N/A,,Overcast,330,2013-05-10 03:15:00
10:55 PM,56.3,53.6,91,30.01,7.0,North,9.2,-,N/A,,Mostly Cloudy,350,2013-05-10 03:55:00
11:15 PM,56.7,52.9,87,30.02,10.0,North,12.7,-,N/A,,Scattered Clouds,360,2013-05-10 04:15:00
11:35 PM,55.9,52.0,87,30.02,10.0,North,15.0,-,N/A,,Clear,360,2013-05-10 04:35:00
11:55 PM,55.4,51.4,87,30.02,10.0,North,13.8,18.4,N/A,,Clear,10,2013-05-10 04:55:00